Theta_e
281 281 281 280 280 280 280 280 279 280 279 279 279 279 278 278 278 278 278 278 278 278 278 278 278 279 279 280 281 281 281 281 280 282 284 285 284 285 286 289 290 290 291
281 281 281 281 280 280 279 279 279 279 278 278 278 277 277 277 277 276 276 277 276 276 277 277 277 278 278 279 279 279 279 280 279 278 281 282 282 284 285 285 286 287 288
280 280 280 280 279 279 279 279 279 277 277 276 276 275 275 275 275 275 276 276 276 275 275 275 276 276 276 277 277 277 278 279 279 278 278 281 282 283 282 283 284 286 287
280 279 279 279 279 279 278 278 276 276 275 274 274 274 273 273 273 274 275 275 274 275 275 275 275 275 274 275 275 276 277 277 278 278 277 277 279 281 282 281 281 284 284
279 279 279 280 279 278 277 275 274 274 273 273 273 272 272 272 273 274 274 274 274 274 274 274 274 274 275 275 275 275 275 275 275 276 276 276 277 277 277 281 280 282 283
278 278 279 278 277 277 275 273 273 272 272 271 271 270 270 271 273 275 276 274 273 272 271 272 272 272 273 274 275 276 275 273 272 272 273 273 274 275 277 277 277 277 276
278 278 277 276 275 274 272 271 270 270 270 269 269 269 268 269 273 275 275 273 272 271 271 270 270 271 271 271 272 274 274 274 276 274 272 272 272 273 275 274 274 274 275
276 275 274 273 271 271 270 269 269 268 268 267 267 267 267 268 272 273 274 272 271 270 270 270 270 270 271 271 271 272 272 273 273 274 274 274 275 275 275 275 275 275 276
275 274 272 271 268 269 267 267 267 266 266 265 267 266 265 265 270 272 272 271 270 269 270 271 271 270 272 274 273 272 272 273 276 277 278 279 279 279 279 277 274 273 272
274 273 271 268 265 264 266 265 265 264 265 265 265 265 264 263 268 271 272 271 269 270 271 271 273 272 275 276 274 273 271 272 274 274 274 276 277 277 278 277 275 272 271
271 270 268 267 264 264 263 264 262 262 263 261 262 263 263 264 264 270 273 272 271 271 272 271 272 275 276 277 278 275 274 276 276 275 275 275 275 276 276 276 276 275 272
268 267 265 262 264 263 260 262 260 260 259 259 259 261 264 265 267 270 273 274 275 272 272 273 273 276 278 278 277 277 277 277 275 274 273 273 273 274 275 276 276 276 276
264 262 260 261 262 262 259 262 262 261 260 260 261 261 263 265 266 270 272 274 275 273 274 275 276 274 274 273 273 274 272 270 270 270 271 272 273 275 275 275 275 275 275
260 261 261 260 261 262 263 262 260 260 260 260 260 261 263 265 268 268 269 272 274 274 273 270 270 269 269 269 267 268 268 268 268 267 269 270 272 271 271 272 272 273 272
260 261 261 261 261 262 262 262 262 262 261 258 259 262 264 266 267 273 273 273 273 272 267 263 262 262 262 263 264 264 265 266 265 267 267 268 269 270 270 272 271 270 269
261 261 261 261 261 262 260 260 264 267 269 271 272 271 269 271 272 274 274 274 274 271 262 259 259 260 260 261 261 262 263 264 265 266 266 267 268 269 270 271 271 270 269
258 261 261 261 260 259 259 258 257 260 264 266 268 270 270 270 272 272 273 272 268 266 257 258 258 259 260 261 261 261 262 263 265 265 266 267 269 270 270 270 270 270 270
254 259 259 259 258 257 257 256 256 254 254 256 260 264 267 269 269 271 269 264 257 258 256 257 258 259 260 260 261 261 262 263 264 265 265 267 268 269 269 269 270 269 270
255 255 256 256 255 254 255 254 254 253 252 252 254 258 260 264 267 266 264 255 253 255 256 257 258 259 260 260 261 262 262 262 264 264 265 266 267 267 268 269 270 271 271
252 255 255 253 254 254 255 254 254 253 252 251 252 254 253 255 255 253 253 252 253 254 255 255 257 258 259 260 261 262 262 263 264 265 265 266 266 267 267 268 269 270 271
252 252 254 251 251 253 253 253 254 253 252 251 252 254 262 261 255 252 251 252 252 253 254 254 255 256 258 259 260 261 262 263 265 266 265 265 265 266 267 268 269 270 270
248 249 248 249 252 252 253 254 253 252 253 252 252 251 261 253 252 251 251 251 252 252 253 253 254 255 257 258 259 260 261 262 264 266 265 264 265 266 267 267 268 268 269
249 250 250 249 251 253 252 252 252 252 252 251 251 252 252 251 251 249 250 251 251 251 253 252 253 254 256 257 258 260 260 262 264 267 264 264 264 265 266 266 266 266 266
248 250 252 252 249 248 248 248 249 250 251 252 252 251 252 251 250 250 250 250 250 251 252 252 253 253 254 255 257 258 261 263 266 266 265 264 264 264 265 265 265 265 265
247 249 252 252 251 251 248 249 251 251 251 252 253 252 252 250 250 250 249 249 249 250 251 251 252 253 253 253 254 256 259 262 268 265 263 263 262 262 263 264 263 264 264
250 251 252 254 252 252 252 252 253 253 254 254 254 253 252 250 250 249 248 248 249 250 250 251 252 251 252 254 255 258 261 266 269 265 264 262 262 263 263 263 263 263 263
Wind_Speed
6 6 6 6 6 6 6 6 5 5 5 5 6 6 6 7 7 7 7 8 9 9 8 9 11 11 9 8 8 9 9 9 13 12 11 11 14 13 11 9 9 11 11
7 6 6 6 5 5 5 5 4 5 5 5 6 6 6 7 7 8 9 9 10 11 11 11 12 9 12 11 9 12 11 11 11 18 13 12 13 12 13 13 11 10 11
6 6 5 5 5 5 5 4 4 4 4 4 4 5 6 7 8 7 8 10 10 11 11 13 14 14 13 11 12 11 10 10 11 13 15 10 11 11 12 12 12 12 10
7 6 6 5 5 4 4 3 3 3 4 4 4 4 5 7 8 8 11 11 12 11 12 12 14 14 15 15 13 13 12 12 11 12 13 13 11 11 11 12 11 9 10
7 7 7 6 5 5 4 3 1 3 3 4 5 5 6 7 6 11 12 12 13 15 14 14 13 14 22 20 12 13 13 12 11 12 13 13 11 10 11 10 11 11 11
8 8 7 6 6 5 3 1 3 4 4 4 5 5 6 6 13 15 14 12 14 14 14 14 14 16 17 23 24 26 21 15 15 12 13 14 15 13 11 11 13 13 15
7 6 6 6 6 4 3 2 2 3 3 4 4 5 6 8 14 17 18 11 13 13 14 14 14 12 16 16 20 24 22 23 24 17 17 15 17 14 14 15 15 14 16
6 6 6 6 5 4 3 2 2 2 3 4 5 5 7 8 16 17 18 12 11 13 13 15 16 17 16 17 16 16 16 16 17 13 16 17 16 14 15 15 16 17 15
8 8 7 6 5 4 3 3 2 2 3 3 4 5 7 9 16 18 17 11 11 13 13 15 15 16 21 26 18 17 16 15 18 28 29 31 31 29 24 13 11 12 14
9 8 7 6 6 5 4 4 3 2 3 3 5 6 8 9 15 16 15 9 10 11 12 13 20 18 27 28 18 16 16 17 16 17 16 20 23 20 28 19 12 14 13
8 8 7 6 5 4 4 2 3 2 3 4 5 6 8 9 10 16 18 10 9 10 10 10 11 25 28 29 30 17 19 20 21 18 15 13 12 14 12 13 14 14 13
8 7 6 5 4 5 4 3 2 2 3 4 5 5 5 8 12 14 18 20 20 12 12 11 13 27 28 28 24 29 32 29 12 11 11 11 11 11 11 12 15 15 14
7 6 5 5 5 5 4 3 2 2 3 4 4 6 6 7 7 15 21 21 21 14 12 19 27 28 29 22 24 26 20 9 10 11 12 12 11 11 13 13 14 17 18
7 6 5 5 4 4 3 3 3 3 3 4 4 6 6 6 6 8 9 8 14 12 14 11 17 19 18 16 12 12 9 9 10 10 12 12 11 11 12 11 12 11 11
6 5 5 4 4 4 4 4 4 4 5 4 5 6 6 6 7 16 16 10 9 12 9 8 8 8 9 9 9 9 9 9 10 10 11 11 11 11 11 10 11 11 13
6 5 5 4 4 4 3 4 8 10 12 15 16 13 4 12 18 19 21 20 19 20 4 5 8 8 9 10 10 11 10 11 10 11 11 11 12 12 11 10 10 11 13
5 5 3 4 3 3 3 3 4 5 10 11 11 12 14 16 16 18 18 18 16 11 3 6 7 8 9 9 9 9 11 11 12 10 11 11 12 11 12 11 11 11 12
3 4 3 4 3 3 4 4 3 3 4 5 5 11 15 13 15 14 14 11 5 5 2 6 7 8 8 9 10 10 10 11 10 11 11 11 11 12 11 11 11 13 12
3 3 4 3 3 4 3 3 4 4 4 5 5 7 8 14 13 10 9 0 3 5 5 6 7 8 8 9 9 10 10 11 12 11 10 11 11 11 11 11 12 16 17
4 7 4 3 4 4 4 5 5 4 4 5 5 6 2 3 2 3 2 2 4 5 6 7 8 8 8 9 9 10 10 11 11 10 11 11 11 10 11 12 11 11 11
2 2 5 2 4 4 4 5 5 4 5 5 6 6 14 5 3 3 3 4 4 6 6 7 7 8 8 8 9 9 10 11 11 10 10 10 11 11 10 10 10 10 9
3 3 3 4 3 4 4 5 5 4 6 5 5 4 14 2 4 4 5 5 5 6 6 7 7 7 8 8 9 10 11 11 12 11 10 10 10 10 10 9 9 8 8
3 3 3 3 4 5 4 4 5 5 6 5 5 5 3 4 4 4 5 5 5 6 6 5 6 7 7 8 8 9 10 11 12 10 10 10 9 9 9 8 8 8 8
3 3 4 4 3 3 4 5 4 6 5 5 5 4 5 4 5 6 6 5 5 6 6 6 6 9 9 9 8 9 9 10 10 8 10 8 8 9 8 8 7 9 7
3 3 4 4 4 4 4 4 5 5 5 5 5 4 4 4 5 5 6 5 6 7 8 7 6 8 10 13 13 14 15 18 9 7 6 7 8 9 8 6 8 7 8
3 4 4 4 4 4 4 5 5 5 5 4 4 4 4 4 5 5 5 5 6 6 8 7 8 11 13 11 12 14 16 18 6 8 6 5 6 7 6 7 10 7 9
Wind_Direction
151 138 131 132 129 120 109 104 97 87 67 52 30 21 10 4 356 344 334 323 321 318 315 306 300 298 294 295 291 286 280 274 275 283 285 292 292 293 290 279 274 277 282
169 157 149 145 143 121 108 103 95 76 52 38 22 11 5 355 343 337 327 323 319 317 316 311 305 303 298 292 286 283 278 282 280 285 287 291 286 292 290 287 281 273 271
167 163 163 162 151 135 114 105 95 71 59 42 18 7 355 349 335 329 321 322 316 314 314 311 311 310 303 302 296 290 285 283 278 279 285 282 285 289 288 281 278 276 266
176 176 178 174 152 140 127 112 79 70 56 22 10 0 354 340 329 331 326 321 316 314 312 310 309 305 303 307 302 297 293 290 286 277 279 284 281 283 282 287 283 273 279
182 187 191 167 156 149 152 151 103 62 40 9 1 359 350 339 334 328 324 318 315 312 311 307 303 304 299 294 292 291 291 289 288 287 284 284 279 278 273 282 285 290 281
191 199 180 166 161 163 154 85 32 13 4 353 350 341 334 323 319 318 317 311 309 306 305 305 303 299 296 299 296 294 289 289 283 282 284 283 287 287 291 292 291 289 284
199 188 177 162 159 161 128 84 350 331 325 322 325 327 317 311 313 316 314 306 302 301 303 305 302 298 295 292 294 293 292 286 282 283 282 281 286 293 292 293 285 280 280
188 180 164 158 154 150 144 201 234 265 303 314 314 308 309 306 313 314 313 309 302 296 296 295 291 289 285 290 285 282 279 274 274 272 268 272 271 271 264 266 268 268 267
191 186 170 153 149 164 198 211 223 244 293 290 302 304 298 295 309 318 317 306 296 291 288 283 278 280 285 291 284 277 273 272 267 271 275 278 279 280 281 279 275 278 279
189 171 147 148 155 177 201 217 206 246 282 299 303 299 288 288 303 311 314 297 292 291 285 280 276 278 287 295 292 286 280 273 271 267 263 266 270 268 269 267 270 267 270
140 138 142 146 159 175 186 209 228 265 294 295 297 285 275 279 287 308 307 302 290 290 294 295 288 290 294 292 289 278 269 270 269 266 262 261 261 260 257 250 248 251 259
138 138 141 152 182 168 192 221 234 260 279 291 288 292 280 279 286 301 306 311 311 307 298 294 289 291 300 312 317 312 309 309 305 293 280 273 273 270 267 262 257 253 253
134 145 163 171 185 178 195 240 267 251 283 297 302 302 298 294 280 290 305 306 310 308 303 306 326 323 315 313 305 310 318 312 305 295 290 286 285 286 283 276 268 264 263
155 169 172 185 193 201 219 219 229 260 272 274 285 282 284 284 291 296 285 287 303 311 329 328 327 326 318 315 316 316 310 307 302 296 293 292 290 284 277 275 274 269 269
163 169 185 188 202 223 229 229 237 229 215 222 236 245 260 293 288 299 317 315 318 334 359 339 330 329 325 323 318 312 310 309 304 296 291 289 285 281 276 272 267 268 263
171 183 196 196 204 216 225 263 267 273 280 283 287 286 254 295 304 312 312 322 342 336 356 327 324 321 321 319 317 315 313 310 307 304 298 294 288 282 282 275 265 261 264
180 183 185 205 214 226 241 244 280 310 306 299 295 287 300 293 306 308 320 329 348 346 325 322 309 310 309 310 309 309 309 307 305 301 299 299 299 293 289 282 276 270 269
182 204 201 210 208 212 223 233 238 255 285 300 305 303 290 300 302 312 328 353 335 334 297 304 302 303 304 305 307 307 306 306 307 306 303 302 302 303 294 284 280 276 273
210 221 215 217 222 221 226 226 235 240 253 261 297 298 294 301 300 323 340 358 300 307 315 307 298 297 301 303 302 302 302 303 304 307 306 304 304 302 300 298 293 284 274
229 245 223 216 228 230 226 234 244 235 246 253 262 266 268 295 289 286 295 299 308 298 300 297 296 296 299 301 304 307 308 307 306 308 309 308 307 304 303 304 302 303 300
234 231 233 226 223 234 230 232 232 233 246 244 254 255 271 258 275 276 290 287 280 281 286 288 291 296 296 301 306 309 310 306 310 312 314 311 311 310 310 308 308 310 310
212 224 208 221 235 230 238 244 241 235 245 248 262 267 288 324 284 277 277 265 268 264 268 275 287 292 294 299 306 307 307 310 313 324 320 315 314 315 317 320 326 329 333
210 236 243 233 228 245 248 240 245 243 250 246 249 264 264 269 272 267 274 279 284 284 285 273 282 292 290 292 295 293 297 304 309 324 320 318 320 326 327 333 340 345 353
215 230 252 260 263 252 251 254 244 241 241 248 243 243 258 267 272 279 279 283 289 285 282 278 276 276 290 295 296 295 292 296 302 322 326 320 323 331 338 344 350 354 0
224 235 243 254 258 261 257 252 249 240 236 240 247 243 258 264 266 271 273 279 280 284 285 281 279 280 283 292 291 294 297 306 318 342 333 329 331 336 345 354 354 0 7
239 233 243 256 252 248 247 255 255 252 251 252 252 260 266 262 265 268 273 278 280 279 282 282 280 281 290 291 291 300 309 311 342 4 343 340 348 355 359 6 9 15 18